AirNav   TITAN Aviation Fuels
 
 408 users online  

12SC Over the Hill Airport
Elgin, South Carolina, USA

GOING TO ELGIN?


FAA INFORMATION EFFECTIVE 03 NOVEMBER 2022

Location

FAA Identifier: 12SC
Lat/Long: 34-08-29.0000N 080-44-48.0000W
34-08.483333N 080-44.800000W
34.1413889,-80.7466667
(estimated)
Elevation: 250 ft. / 76 m (estimated)
Variation: 06W (2000)
From city: 5 miles SE of ELGIN, SC
Time zone: UTC -5 (UTC -4 during Daylight Saving Time)
Zip code: 29045

Airport Operations

Airport use: Private use. Permission required prior to landing
Activation date: 07/2002
Control tower: no
ARTCC: JACKSONVILLE CENTER
FSS: ANDERSON FLIGHT SERVICE STATION
Attendance: UNATNDD
Segmented circle: no

Airport Communications

WX AWOS-3 at CDN (12 nm NE): 119.975 (803-424-1979)
WX ASOS at CUB (16 nm SW): 118.675 (803-929-0665)

Nearby radio navigation aids

VOR radial/distance  VOR name  Freq  Var
MMTr020/13.3MC ENTIRE VORTAC113.2008W
CAEr044/22.9COLUMBIA VORTAC114.7002W
CTFr220/38.5CHESTERFIELD VOR/DME114.5503W

 
NDB name  Hdg/Dist  Freq  Var  ID
SUMTER302/21.225207WSMS ... -- ...
HARTSVILLE250/34.934107WHVS .... ...- ...
LANCASTER178/35.340007WLKR .-.. -.- .-.

Airport Services

Runway Information

Runway 8/26

Dimensions: 2200 x 100 ft. / 671 x 30 m
Surface: turf
RUNWAY 8  RUNWAY 26
Traffic pattern: leftleft

Airport Ownership and Management from official FAA records

Ownership: Privately-owned
Owner: DAVID SMITH
P.O. BOX 1204
ELGIN, SC 29045
Phone 803-438-3085
Manager: DAVID SMITH
P.O. BOX 1204
ELGIN, SC 29045
Phone 803-438-3085

Additional Remarks

FOR CD CTC SHAW APCH AT 803-895-4884, WHEN APCH CLSD CTC JACKSONVILLE ARTCC AT 904-845-1592.

Instrument Procedures

There are no published instrument procedures at 12SC.

Some nearby airports with instrument procedures:

KCDN - Woodward Field Airport (12 nm NE)
KMMT - Mc Entire Joint National Guard Base (14 nm S)
KCUB - Jim Hamilton L B Owens Airport (16 nm SW)
KSSC - Shaw Air Force Base (17 nm SE)
KFDW - Fairfield County Airport (21 nm NW)
 
Loc | Ops | Rwys | IFR | FBO | Links
Com | Nav | Svcs | Stats | Notes
Area around 12SC (Over the Hill Airport)
 
Road maps at: MapQuest Bing Google
 
Aerial photo
No photo
 
Sectional chart

 
Airport distance calculator
Flying to Over the Hill Airport? Find the distance to fly.

From to 12SC

Sunrise and sunset
Times for 29-Nov-2022
 Local
(UTC-5)
 Zulu
(UTC)
Morning civil twilight06:4311:43
Sunrise07:1012:10
Sunset17:1322:13
Evening civil twilight17:4022:40

Current date and time
Zulu (UTC)  29-Nov-2022 07:57:00
Local (UTC-5)  29-Nov-2022 02:57:00
 
METAR
KCDN 
12nm NE 
290735Z AUTO 00000KT 10SM CLR 08/05 A3013 RMK AO2
KMMT 
14nm S 
290655Z AUTO 00000KT 8SM CLR 05/05 A3009 RMK AO2 SLP192 T00500049 $
KCUB 
16nm SW 
290653Z AUTO 04003KT 10SM CLR 08/07 A3012 RMK AO2 SLP197 T00780067
KSSC 
17nm SE 
290655Z AUTO 03005KT 10SM CLR 06/05 A3010 RMK AO2 SLP194 T00610047 $
KFDW 
21nm NW 
290735Z AUTO 08007KT 10SM CLR 08/06 A3011 RMK AO1
KSMS 
21nm SE 
290735Z AUTO 00000KT 10SM CLR 06/06 A3013 RMK AO2
KCAE 
22nm SW 
290718Z 00000KT 10SM FEW008 07/06 A3010 RMK AO2 T00720061
TAF
KMMT 
14nm S 
282300Z 2823/3005 VRB06KT 9999 BKN030 QNH2994INS TX20/2923Z TN08/2912Z
KCUB 
16nm SW 
290530Z 2906/3006 00000KT P6SM SKC FM291500 12005KT P6SM SKC
KSSC 
17nm SE 
290000Z 2900/3006 30004KT 9999 SCT030 QNH3002INS BECMG 2909/2910 06005KT 9999 FEW035 QNH3011INS BECMG 2916/2917 10006KT 9999 SKC QNH3024INS BECMG 3000/3001 11005KT 9999 BKN025 QNH3016INS TX19/2920Z TN09/2911Z
NOTAMs
Click for the latest NOTAMs
NOTAMs are issued by the DoD/FAA and will open in a separate window not controlled by AirNav.

 

 
 

Would you like to see your business listed on this page?

 If your business provides an interesting product or service to pilots, flight crews, aircraft, or users of the Over the Hill Airport, you should consider listing it here.  To start the listing process, click on the button below
 
Add a business
 

Other Pages about Over the Hill Airport

Update a link
 
Copyright © AirNav, LLC. All rights reserved. Privacy Policy  Contact